Regional Weather Roundup
Issued by NWS

Home | Current Version | Previous Version | Text Only | Print | Product List | Glossary On
Versions: 1 2 3 4 5 6 7 8 9 10 11 12 13 14 15 16 17 18 19 20 21 22 23 24 25 26 27 28 29 30 31 32 33 34 35 36 37 38 39 40 41 42 43 44 45 46 47 48 49 50
000
ASUS43 KDMX 310307
RWRIA

WEATHER ROUNDUP FOR IOWA
NATIONAL WEATHER SERVICE DES MOINES IA
1000 PM CDT SUN AUG 30 2015

NOTE: "FAIR" INDICATES FEW OR NO CLOUDS BELOW 12,000 FEET WITH NO
SIGNIFICANT WEATHER AND/OR OBSTRUCTIONS TO VISIBILITY.

* - THESE STATIONS ARE NOT NWS STATIONS...THUS NOT UNDER NWS
QUALITY CONTROL.  THEY ALSO DO NOT REPORT WEATHER SUCH
AS PRECIPITATION OR FOG.

IAZ001>003-012>014-020>022-031>034-043>046-310400-
   NORTHWEST IOWA

CITY           SKY/WX    TMP DP  RH WIND       PRES   REMARKS
CARROLL *      CLOUDY    63  63 100 CALM      29.98S FOG
CHEROKEE *     CLEAR     64  64 100 S6        29.96F FOG
DENISON *      CLOUDY    64  64 100 SE5       29.97R FOG
LE MARS *      MOCLDY    66  66 100 SE9       29.94F
ORANGE CITY *  CLEAR     66  64  94 S6        29.95S FOG
SHELDON *      CLOUDY    64  64 100 S7        29.94S FOG
SPENCER        CLEAR     64  62  93 S7        29.96F FOG
STORM LAKE *   CLEAR     64  64 100 S8        29.98F FOG
$$

IAZ055>058-069>071-079>083-090>094-310400-
   SOUTHWEST IOWA

CITY           SKY/WX    TMP DP  RH WIND       PRES   REMARKS
ATLANTIC *     CLOUDY    63  63 100 CALM      29.99R FOG
AUDUBON *      FOG       61  59  94 CALM      30.00S VSB 1/4
CLARINDA *     FOG       66  66 100 CALM      30.00R VSB<1/4
COUNCIL BLFS * CLEAR     68  66  94 S6        29.98S
CRESTON *      CLEAR     68  66  94 SE3       30.01S
HARLAN  *      FOG       63 N/A N/A CALM      30.02R VSB 1/4
LAMONI         CLEAR     73  68  84 E3        30.00R
RED OAK *      CLEAR     64  64 100 CALM      29.99R
SHENANDOAH *   PTCLDY    66  66 100 CALM      29.98S
$$

IAZ047>049-059>061-072>074-084-310400-
   CENTRAL IOWA

CITY           SKY/WX    TMP DP  RH WIND       PRES   REMARKS
AMES           FOG       62  62 100 SE5       29.99S VSB 1/2
ANKENY *       CLEAR     68  68 100 CALM      29.98F FOG
CHARITON *     CLOUDY    68  68 100 SE6       30.00S FOG
DES MOINES     PTCLDY    72  68  87 SE7       29.98S
GRINNELL*      CLEAR     66  64  94 E5        30.01F
KNOXVILLE *    CLEAR     70  68  94 SE5       29.99S
MARSHALLTOWN   CLEAR     65  63  93 SE6       29.99S
PELLA *        CLEAR     68  68 100 SE3       30.01S FOG
PERRY *          N/A     66  66 100 SE5       29.99S FOG
$$

IAZ004>006-015-016-023>025-035-036-310400-
   NORTH CENTRAL IOWA

CITY           SKY/WX    TMP DP  RH WIND       PRES   REMARKS
ALGONA *       PTCLDY    66  64  94 S8        29.98S
CLARION *      CLEAR     63  63 100 SE7       29.99S
ESTHERVILLE    CLEAR     63  63 100 S7        29.96S FOG
FORT DODGE *   CLEAR     66  63  88 S3        29.99S
MASON CITY     CLEAR     61  61 100 S6        30.00S
FOREST CITY *  CLEAR     61  61 100 S6        29.99S FOG
IOWA FALLS *     N/A     64  63  94 SE5       30.01S
$$

IAZ007>011-017>019-026>030-037>042-050>054-066-310400-
   NORTHEAST IOWA

CITY           SKY/WX    TMP DP  RH WIND       PRES   REMARKS
CEDAR RAPIDS   CLEAR     64  64 100 E5        30.01R
CHARLES CITY * CLEAR     63  63 100 S3        30.01S
CLINTON *      CLEAR     63  61  94 E5        30.05S
DECORAH *      MOCLDY    64  63  94 S5        30.00S
DUBUQUE        CLEAR     62  61  96 CALM      30.04S
MONTICELLO *   CLEAR     61  61 100 CALM      30.02S FOG
OELWEIN *      CLEAR     63  63 100 SE5       30.02F FOG
WATERLOO       CLEAR     63  62  97 CALM      29.99S
$$

IAZ064-065-067-068-078-310400-
   EAST CENTRAL IOWA

CITY           SKY/WX    TMP DP  RH WIND       PRES   REMARKS
DAVENPORT      CLEAR     64  62  93 E5        30.03R
IOWA CITY      CLEAR     65  63  93 CALM      30.02S
MT. PLEASANT * CLEAR     70  64  83 E5        30.01S FOG
MUSCATINE *    PTCLDY    68  66  94 CALM      30.01F
QUAD CITIES    CLEAR     66  63  90 E3        30.02R
$$

IAZ062-063-075>077-085>089-095>099-310400-
   SOUTHEAST IOWA

CITY           SKY/WX    TMP DP  RH WIND       PRES   REMARKS
BURLINGTON     CLEAR     72  69  90 E5        30.01S
FAIRFIELD *    CLEAR     66  64  94 E5        30.01S
FORT MADISON * CLEAR     70  70 100 SE5       30.02S
KEOKUK *       CLEAR     72  68  88 E7        30.00F
OSKALOOSA *      N/A     66  64  94 E3        30.01S FOG
CENTERVILLE *  CLEAR     68  66  94 E5        30.02S
OTTUMWA        CLEAR     67  67 100 E5        29.99R
WASHINGTON *     N/A    N/A N/A N/A MISG        N/A
$$

ABBREVIATIONS USED IN REMARKS
   TC - TEMPERATURES IN CELSIUS
  WCI - WIND CHILL INDEX
   HX - HEAT INDEX
  VSB - VISIBILITY
$$




USA.gov is the U.S. government's official web portal to all federal, state and local government web resources and services.